Lid_Strength_Index
3 4 4 3 10 10 12 10 8 9 9 9 10 11 13 13 13 13 12 11 10 11 10 8 4 3 2 1 1 0 0 -0 -1 -1 -2 -2 -2 -1 -1 -1 -1 -1 -1 -1 -1 -1 -1 -1 -2
4 5 4 5 11 14 12 8 11 11 10 9 11 12 12 15 12 11 12 11 11 11 10 8 5 3 3 3 2 1 1 0 0 -1 -1 -1 -1 -2 -2 -1 -1 -1 -1 -1 -1 -1 -1 -1 -1
4 5 6 9 11 13 13 9 12 11 10 10 11 13 13 15 13 13 12 11 11 11 10 9 6 4 3 3 3 2 2 1 1 1 0 0 -0 -0 -1 -1 -1 -1 -1 -1 -1 -1 -1 -1 -1
6 5 5 11 12 10 9 10 10 11 11 11 11 15 14 13 13 13 12 11 12 12 11 9 7 5 5 4 3 3 3 3 3 2 2 1 1 1 0 -0 -0 -1 -1 -1 -2 -1 -1 -1 -1
6 5 10 11 11 10 10 9 9 11 11 12 12 15 15 14 12 12 12 12 12 12 11 10 8 7 6 5 5 4 4 4 4 3 3 2 2 2 2 1 1 0 0 -0 -1 -1 -1 -1 -1
7 6 12 13 11 10 10 9 9 11 11 12 12 13 16 13 13 13 12 13 12 12 11 10 8 8 7 7 6 6 5 5 5 5 4 4 3 3 3 3 2 2 1 0 0 0 0 0 -1
7 9 12 11 11 10 11 9 11 11 12 14 13 14 15 14 13 13 13 12 12 12 11 11 11 9 7 8 8 7 6 6 6 6 6 6 5 4 4 4 3 3 3 2 1 1 1 1 0
6 8 11 10 11 10 11 12 13 13 14 13 13 14 16 15 14 13 13 13 13 13 12 12 12 11 11 10 8 8 7 7 7 7 7 7 6 6 6 6 5 4 4 3 3 2 2 2 1
5 10 12 11 10 11 12 13 14 14 14 14 14 15 15 14 13 14 14 14 14 13 13 13 12 12 11 11 10 9 8 8 8 8 7 8 9 9 8 6 6 5 5 4 4 4 3 3 2
8 11 10 10 11 11 11 11 14 14 15 15 16 15 14 14 14 15 15 15 15 14 14 13 13 12 12 11 11 11 11 11 11 11 10 10 10 9 8 8 7 7 7 7 6 6 6 6 7
9 11 11 12 11 11 12 12 11 11 12 12 15 16 15 15 15 15 15 15 15 14 14 13 13 13 13 12 12 13 12 12 12 12 12 11 11 11 11 11 11 11 9 10 9 9 9 8 8
11 11 12 13 13 11 12 12 13 14 16 13 12 14 15 15 15 15 15 15 15 14 14 14 14 13 13 12 13 13 13 13 14 14 13 13 12 12 12 12 12 12 12 12 11 10 9 9 9
12 12 12 12 12 12 11 12 13 15 15 14 13 14 15 15 15 15 14 14 14 14 15 15 14 14 14 14 14 14 14 14 15 14 14 13 13 13 13 13 13 13 12 12 12 12 11 11 11
12 12 13 12 12 13 14 13 13 14 14 15 15 15 15 15 15 15 15 15 15 15 15 14 14 14 14 15 15 15 15 15 15 15 15 14 14 14 14 14 14 14 13 13 13 13 12 12 11
12 13 13 13 12 13 13 13 13 12 12 13 13 13 13 13 13 14 14 14 15 15 14 15 15 14 14 15 15 15 14 14 15 15 15 15 14 15 15 14 14 13 13 13 12 12 12 12 11
13 13 15 14 13 13 14 15 13 12 12 13 12 13 13 13 13 13 13 14 14 14 14 14 13 14 14 15 14 14 15 15 15 15 14 14 13 13 14 14 14 13 13 13 13 12 12 12 12
14 17 15 15 14 14 15 15 12 12 13 13 13 13 13 14 14 13 13 13 13 13 13 13 13 13 13 13 13 13 14 14 14 14 14 14 13 13 14 14 13 13 13 13 13 12 12 13 12
17 17 16 17 16 15 16 15 13 13 13 14 13 13 14 14 14 13 13 13 14 14 14 13 13 13 13 13 13 13 13 14 14 14 14 13 13 13 13 14 13 13 13 14 13 13 12 13 13
15 17 18 16 16 18 16 15 14 13 13 14 13 13 13 13 13 13 13 14 14 14 14 14 14 14 13 14 14 14 15 14 14 14 13 13 13 13 14 14 14 13 14 14 13 13 13 13 12
16 18 18 17 16 18 17 17 15 13 13 13 13 13 13 13 13 13 14 14 14 15 14 14 14 14 13 13 14 14 15 14 14 13 13 13 13 13 13 14 14 13 14 14 14 14 14 13 12
17 19 19 19 17 17 18 18 16 15 14 13 12 12 12 12 13 14 14 15 15 15 15 14 14 13 13 13 13 14 14 14 14 14 14 13 12 12 13 13 13 13 13 14 14 14 14 14 13
18 18 18 18 19 21 18 22 17 16 15 14 14 13 13 12 12 13 13 14 14 15 14 13 13 13 13 13 13 13 15 15 15 14 13 13 12 12 12 12 13 13 13 14 14 13 14 14 15
19 18 18 19 19 20 20 21 18 16 16 16 15 13 13 12 12 12 12 12 13 13 13 14 13 13 13 13 12 13 14 14 14 13 13 13 13 12 12 12 13 13 13 14 14 14 14 14 14
17 18 19 19 19 23 21 21 20 17 16 15 14 13 12 12 11 11 11 11 13 12 13 13 13 13 13 13 13 13 13 13 14 13 14 14 13 13 13 12 13 13 14 14 14 14 14 14 14
18 19 20 22 23 22 21 22 19 15 15 15 14 14 13 12 12 12 12 13 12 13 13 12 12 13 12 13 13 12 12 13 13 13 14 14 14 14 14 13 13 14 14 13 13 13 14 14 14
19 19 20 25 22 21 20 21 18 14 14 14 14 14 13 13 11 11 11 12 12 12 12 12 12 12 12 12 12 12 12 12 13 13 13 13 14 14 13 13 13 13 13 14 14 13 14 14 14
19 21 19 23 24 24 20 18 16 15 15 14 15 14 14 14 12 11 11 11 12 12 12 12 12 12 12 12 12 12 12 12 13 13 13 13 13 12 13 13 14 14 13 13 14 14 14 14 14
19 18 22 21 27 27 20 20 20 17 15 14 14 14 14 14 14 12 11 11 11 11 11 11 11 11 11 11 12 11 12 12 12 12 13 13 13 13 13 13 13 13 14 14 14 14 14 14 14
21 21 20 19 20 23 24 21 15 15 14 15 14 14 14 13 13 12 11 11 11 11 11 11 11 11 11 11 11 12 12 12 12 12 12 12 12 12 13 13 13 13 13 13 14 14 14 14 14
20 19 19 22 23 22 22 22 14 14 14 14 15 13 14 14 12 12 12 11 11 12 11 11 11 11 11 11 11 11 11 11 12 12 12 11 12 12 12 12 13 13 13 13 14 14 14 14 14